Regional Weather Roundup
Issued by NWS

Home | Current Version | Previous Version | Text Only | Print | Product List | Glossary Off
Versions: 1 2 3 4 5 6 7 8 9 10 11 12 13 14 15 16 17 18 19 20 21 22 23 24 25 26 27 28 29 30 31 32 33 34 35 36 37 38 39 40 41 42 43 44 45 46 47 48 49 50

000
ASUS43 KDMX 011008
RWRIA

WEATHER ROUNDUP FOR IOWA
NATIONAL WEATHER SERVICE DES MOINES IA
500 AM CDT SUN MAY 01 2016

NOTE: "FAIR" INDICATES FEW OR NO CLOUDS BELOW 12,000 FEET WITH NO
SIGNIFICANT WEATHER AND/OR OBSTRUCTIONS TO VISIBILITY.

* - THESE STATIONS ARE NOT NWS STATIONS...THUS NOT UNDER NWS
QUALITY CONTROL.  THEY ALSO DO NOT REPORT WEATHER SUCH
AS PRECIPITATION OR FOG.

IAZ001>003-012>014-020>022-031>034-043>046-011100-
   NORTHWEST IOWA

CITY           SKY/WX    TMP DP  RH WIND       PRES   REMARKS
CARROLL *      MIX PCPN  43  43 100 NE13      29.98S
CHEROKEE *     RAIN      43  41  93 NE13      30.03S
DENISON *      CLOUDY    43  41  93 NE13      29.96S FOG
LE MARS *      LGT RAIN  43  41  93 NE15      30.05S
ORANGE CITY *  DRIZZLE   43  41  93 NE10G17   30.05R
SHELDON *      CLOUDY    43  43 100 NE18      30.05R
SIOUX CITY     LGT RAIN  44  40  85 NE14      30.03R
SPENCER        CLOUDY    42  40  92 NE18      30.05R FOG
STORM LAKE *   CLOUDY    41  41 100 NE20G26   30.01S FOG
$$

IAZ055>058-069>071-079>083-090>094-011100-
   SOUTHWEST IOWA

CITY           SKY/WX    TMP DP  RH WIND       PRES   REMARKS
ATLANTIC *     CLOUDY    45  43  93 NE12      29.94S
AUDUBON *      LGT RAIN  43  41  93 NE10      29.97R
CLARINDA *       N/A    N/A N/A N/A MISG        N/A
COUNCIL BLFS * CLOUDY    45  45 100 NE14      29.93S
CRESTON *      CLOUDY    45  45 100 NE16      29.92F FOG
HARLAN  *      CLOUDY    45  43  93 NE13G18   29.99R
LAMONI         CLOUDY    45  45 100 NE13      29.91R FOG
RED OAK *      CLOUDY    46  45  93 NE13      29.92S
SHENANDOAH *   CLOUDY    48  48 100 E9        29.92R
$$

IAZ047>049-059>061-072>074-084-011100-
   CENTRAL IOWA

CITY           SKY/WX    TMP DP  RH WIND       PRES   REMARKS
AMES           CLOUDY    44  42  93 NE9       29.97R
ANKENY *       CLOUDY    45  45 100 NE7       29.96S
BOONE *        CLOUDY    43  43 100 NE10      29.96R
CHARITON *     CLOUDY    45  45 100 NE9       29.92F FOG
DES MOINES     LGT RAIN  45  42  89 E7        29.96R FOG
GRINNELL*      CLOUDY    43  43 100 NE16      29.94S
KNOXVILLE *    CLOUDY    45  43  93 E12       29.92S
MARSHALLTOWN   CLOUDY    44  43  96 NE14      29.96S FOG
NEWTON *       CLOUDY    45  45 100 NE14      29.95R
PELLA *        CLOUDY    45  45 100 E7        29.95R
$$

IAZ004>006-015-016-023>025-035-036-011100-
   NORTH CENTRAL IOWA

CITY           SKY/WX    TMP DP  RH WIND       PRES   REMARKS
ALGONA *       LGT RAIN  43  41  93 NE18G25   30.04R
CLARION *      CLOUDY    43  43 100 NE17G24   30.01S FOG
ESTHERVILLE    CLOUDY    41  40  96 NE17      30.06R FOG
FORT DODGE *   CLOUDY    43  37  81 NE13      30.01R
MASON CITY     CLOUDY    43  40  89 NE16      30.04S
FOREST CITY *  RAIN      41  41 100 NE12      30.04S
WEBSTER CITY * MIX PCPN  43  43 100 NE15      29.98R
IOWA FALLS *   CLOUDY    45  43  93 NE10      30.00S
$$

IAZ007>011-017>019-026>030-037>042-050>054-066-011100-
   NORTHEAST IOWA

CITY           SKY/WX    TMP DP  RH WIND       PRES   REMARKS
CEDAR RAPIDS   CLOUDY    44  44 100 NE10      29.95R FOG
CHARLES CITY * CLOUDY    45  41  87 NE15G23   30.02R
CLINTON *      CLOUDY    46  45  96 NE9       29.95R
DECORAH *      CLOUDY    43  39  87 VRB7G16   30.01S
DUBUQUE        CLOUDY    44  42  93 NE15      29.97R FOG
MONTICELLO *   DRIZZLE   45  43  93 NE9G16    29.96S
OELWEIN *      CLOUDY    43  43 100 NE16      30.00R
WATERLOO       CLOUDY    43  40  89 NE13      29.99R
$$

IAZ064-065-067-068-078-011100-
   EAST CENTRAL IOWA

CITY           SKY/WX    TMP DP  RH WIND       PRES   REMARKS
DAVENPORT      CLOUDY    46  44  93 NE10      29.94R FOG
IOWA CITY      CLOUDY    45  44  97 NE8       29.96R
MT. PLEASANT * CLOUDY    48  48 100 N8        29.93R FOG
MUSCATINE *    CLOUDY    46  45  93 NE7       29.94S FOG
QUAD CITIES    CLOUDY    47  45  93 NE8       29.93R FOG
$$

IAZ062-063-075>077-085>089-095>099-011100-
   SOUTHEAST IOWA

CITY           SKY/WX    TMP DP  RH WIND       PRES   REMARKS
BURLINGTON     CLOUDY    47  47 100 NE8       29.91S FOG
FAIRFIELD *    CLOUDY    45  45 100 NE10      29.92S FOG
FORT MADISON * FOG       46  46 100 N6        29.92S VSB 3/4
KEOKUK *       CLOUDY    48  48 100 N6        29.90S FOG
OSKALOOSA *    CLOUDY    45  43  93 NE12      29.93S FOG
OTTUMWA        CLOUDY    45  44  97 NE10      29.93R
WASHINGTON *   CLOUDY    45  45 100 NE10      29.95R FOG
$$

ABBREVIATIONS USED IN REMARKS
   TC - TEMPERATURES IN CELSIUS
  WCI - WIND CHILL INDEX
   HX - HEAT INDEX
  VSB - VISIBILITY
$$





USA.gov is the U.S. government's official web portal to all federal, state and local government web resources and services.